TimePDT,TemperatureF,Dew PointF,Humidity,Sea Level PressureIn,VisibilityMPH,Wind Direction,Wind SpeedMPH,Gust SpeedMPH,PrecipitationIn,Events,Conditions,WindDirDegrees,DateUTC
12:53 AM,43.0,39.0,86,30.12,10.0,SW,5.8,-,N/A,,Clear,220,2013-10-09 07:53:00
1:53 AM,43.0,39.0,86,30.14,10.0,SW,6.9,-,N/A,,Clear,220,2013-10-09 08:53:00
2:53 AM,41.0,37.9,89,30.13,10.0,Calm,Calm,-,N/A,,Clear,0,2013-10-09 09:53:00
3:53 AM,41.0,37.9,89,30.14,10.0,SSW,4.6,-,N/A,,Clear,210,2013-10-09 10:53:00
4:53 AM,42.1,37.9,85,30.14,10.0,SW,5.8,-,N/A,,Clear,220,2013-10-09 11:53:00
5:53 AM,39.9,37.9,93,30.15,10.0,SW,6.9,-,N/A,,Clear,230,2013-10-09 12:53:00
6:53 AM,41.0,37.9,89,30.15,10.0,SW,6.9,-,N/A,,Clear,230,2013-10-09 13:53:00
7:53 AM,43.0,39.0,86,30.14,10.0,WSW,8.1,-,N/A,,Clear,240,2013-10-09 14:53:00
8:53 AM,48.0,39.9,74,30.14,10.0,SW,5.8,-,N/A,,Clear,230,2013-10-09 15:53:00
9:53 AM,51.1,42.1,71,30.13,10.0,Calm,Calm,-,N/A,,Clear,0,2013-10-09 16:53:00
10:53 AM,54.0,45.0,72,30.11,10.0,Variable,5.8,-,N/A,,Clear,0,2013-10-09 17:53:00
11:53 AM,52.0,45.0,77,30.11,10.0,NE,4.6,-,N/A,,Clear,40,2013-10-09 18:53:00
12:53 PM,54.0,46.0,75,30.09,10.0,East,6.9,-,N/A,,Clear,80,2013-10-09 19:53:00
1:53 PM,55.0,46.0,72,30.06,10.0,NNE,4.6,-,N/A,,Clear,20,2013-10-09 20:53:00
2:53 PM,55.9,44.1,64,30.05,10.0,East,3.5,-,N/A,,Clear,100,2013-10-09 21:53:00
3:53 PM,57.0,44.1,62,30.04,10.0,Calm,Calm,-,N/A,,Clear,0,2013-10-09 22:53:00
4:53 PM,55.9,43.0,62,30.02,10.0,North,3.5,-,N/A,,Clear,350,2013-10-09 23:53:00
5:53 PM,53.1,43.0,69,30.02,10.0,West,5.8,-,N/A,,Clear,280,2013-10-10 00:53:00
6:53 PM,50.0,45.0,83,30.01,10.0,West,3.5,-,N/A,,Scattered Clouds,280,2013-10-10 01:53:00
7:53 PM,50.0,45.0,83,29.99,10.0,Calm,Calm,-,N/A,,Scattered Clouds,0,2013-10-10 02:53:00
8:53 PM,51.1,44.1,77,29.99,10.0,SSW,3.5,-,N/A,,Scattered Clouds,200,2013-10-10 03:53:00
9:53 PM,50.0,45.0,83,29.99,10.0,WSW,5.8,-,N/A,,Overcast,250,2013-10-10 04:53:00
10:53 PM,50.0,45.0,83,29.97,10.0,West,5.8,-,N/A,,Overcast,260,2013-10-10 05:53:00
11:53 PM,50.0,46.0,86,29.97,10.0,WSW,5.8,-,N/A,,Overcast,250,2013-10-10 06:53:00